Home > Weather > Husum > Past weeks

Flag for Germany Past Weather in Husum, Schleswig-Holstein, Germany — Yesterday and Last 2 Weeks

Now
61 °F

Cool.


Feels Like: 61 °F
Forecast: 57 / 67 °F
Wind: 6 mph from South

Location: Schleswig-Jagel

Current Time: Jul 30, 2016 at 7:39:25 AM

Latest Report: Jul 30, 2016 at 6:20 AM


Visibility: 3 mi

Pressure: 29.77 "Hg

Humidity: 94%

Dew Point: 59 °F

Location of HusumLocation

Past Weather in Husum — Graph

°F

Husum Temperature Yesterday

Maximum temperature yesterday: 72 °F (at 1:20 PM)
Minimum temperature yesterday: 59 °F (at 5:20 AM)
Average temperature yesterday: 66 °F

High & Low Weather Summary for the Past Weeks

 TemperatureHumidityPressure
High82 °F (Jul 20, 4:20 PM)100% (Jul 16, 12:20 PM)30.18 "Hg (Jul 16, 12:20 PM)
Low50 °F (Jul 16, 12:20 AM)42% (Jul 23, 2:20 PM)29.77 "Hg (Jul 29, 5:20 PM)
Average66 °F78%30.03 "Hg
* Reported Jul 15 6:20 AM — Jul 30 6:20 AM, Husum, Weather by CustomWeather, © 2016

Note: Actual official high and low records may vary slightly from our data, if they occured in-between our weather recording intervals... More about our weather records

Advertising

Husum Weather History for the Previous 24 Hours

Scroll right to see more
 ConditionsComfort  
Time TempWeatherWind HumidityBarometerVisibility
6:20 AM
Sat, Jul 30
61 °FCool.6 mph94%29.77 "Hg3 mi
5:20 AM61 °FCool.6 mph94%29.77 "Hg3 mi
4:20 AM61 °FCool.7 mph94%29.77 "Hg3 mi
3:20 AM63 °FMild.8 mph94%29.77 "Hg3 mi
2:20 AM63 °FMild.5 mph94%29.77 "Hg2 mi
1:20 AM63 °FMild.6 mph94%29.77 "Hg4 mi
12:20 AM63 °FMild.7 mph94%29.77 "Hg3 mi
11:20 PM
Fri, Jul 29
64 °FMild.6 mph88%29.80 "Hg4 mi
10:20 PM64 °FMild.6 mph88%29.80 "Hg4 mi
9:20 PM64 °FMild.5 mph88%29.77 "Hg4 mi
8:20 PM66 °FMild.6 mph78%29.77 "Hg4 mi
7:20 PM68 °FMild.8 mph73%29.77 "Hg4 mi
6:20 PM70 °FMild.14 mph69%29.77 "Hg4 mi
5:20 PM70 °FMild.12 mph69%29.77 "Hg4 mi
4:20 PM70 °FMild.7 mph69%29.80 "Hg4 mi
3:20 PM68 °FMild.12 mph69%29.80 "Hg4 mi
2:20 PM72 °FMild.15 mph57%29.80 "Hg4 mi
1:20 PM72 °FMild.16 mph61%29.80 "Hg4 mi
12:20 PM70 °FMild.13 mph69%29.80 "Hg4 mi
11:20 AM68 °FScattered clouds.13 mph73%29.80 "HgN/A
10:20 AM68 °FScattered clouds.12 mph73%29.80 "HgN/A
9:20 AM66 °FBroken clouds.9 mph83%29.80 "Hg6 mi
8:20 AM64 °FPartly sunny.3 mph88%29.80 "Hg6 mi
7:20 AM63 °FPartly sunny.2 mph88%29.80 "Hg6 mi
Weather by CustomWeather, © 2016

See weather overviewHow to use our weather pages